www.pogodaiklimat.ru

Погода и климат >> Архив погоды >> Бельгия >> Бейтем


ПОГОДА в Бейтеме

  • Прогноз погоды в Бейтеме
  • Монитор погоды в Бейтеме

АРХИВ ПОГОДЫ в Бейтеме

Время (UTC), дата Ветер
(напр.,м/с)
 
Видим.   Явления Облачность Т
(С)
Тd
(С)
f
(%)
Тe
(С)
Тes
(С)
Комфортность P
(гПа)
Po
(гПа)
Тmin
(С)
Tmax
(С)
R
(мм)
R24
(мм)
S
(см)
13 14.07 С 5 н/о н/о +19.2 +11.8 62 +20 +20 1022.0 1018.8 195
14 14.07 С 6 н/о н/о +18.4 +11.4 64 +18 +18 1022.0 1018.8 78
15 14.07 С 5 н/о н/о +18.3 +11.6 65 +18 +18 1021.8 1018.7 82
16 14.07 С 6 н/о н/о +18.1 +12.2 68 +18 +18 1021.7 1018.6 90
17 14.07 С 6 н/о н/о +18.0 +12.0 68 +17 +17 1021.8 1018.6 92
18 14.07 С 6
{10}
н/о н/о +17.5 +12.3 72 +17 +17 1021.8 1018.7 +19.2 86
19 14.07 С 4 н/о н/о +16.2 +11.5 74 +15 +15 1021.9 1018.7 30
20 14.07 С 4 н/о н/о +15.3 +10.9 75 +14 +14 1021.9 1018.7 9
21 14.07 С 3 н/о н/о +13.8 +10.7 82 +13 +13 1022.3 1019.2
22 14.07 н/о н/о +13.3 +10.2 81 1022.2 1019.0
23 14.07 СЗ 2 н/о н/о +11.6 +9.7 88 +10 +10 1022.3 1019.1
00 15.07 СЗ 1 н/о н/о +9.3 +8.5 95 +9 +9 1022.4 1019.2 121
01 15.07 СЗ 1 н/о н/о +10.6 +10.3 98 +10 +10 1022.2 1018.9
02 15.07 СЗ 1 н/о н/о +12.2 +11.7 97 +12 +12 1021.5 1018.3
03 15.07 н/о н/о +13.1 +12.0 93 1021.5 1018.3
04 15.07 СЗ 1 н/о н/о +14.0 +11.1 83 +14 +14 1021.6 1018.4
05 15.07 н/о н/о +14.3 +11.3 82 1021.2 1018.0 2
06 15.07 С 1
{4}
н/о н/о +14.9 +12.2 84 +15 +15 1021.3 1018.1 +9.3 11
07 15.07 С 2 н/о н/о +15.4 +12.5 83 +15 +15 1021.6 1018.5 28
08 15.07 С 4 н/о н/о +15.3 +12.2 82 +14 +14 1022.1 1018.9 30
09 15.07 С 3 н/о н/о +16.8 +11.4 70 +17 +17 1021.9 1018.7 101
10 15.07 С 4 н/о н/о +16.3 +11.7 74 +16 +16 1021.8 1018.6 77
11 15.07 С 4 н/о н/о +16.6 +11.6 72 +16 +16 1021.9 1018.7 80
12 15.07 С 4 н/о н/о +17.7 +10.9 64 +17 +17 1021.9 1018.7 125
13 15.07 С 4 н/о н/о +18.4 +10.2 59 +19 +19 1021.8 1018.7 150
14 15.07 С 4 н/о н/о +19.4 +10.3 56 +20 +20 1021.7 1018.6 173
15 15.07 н/о н/о +18.6 +11.2 62 1021.7 1018.6 151
16 15.07 С 4 н/о н/о +17.0 +12.0 72 +17 +17 1022.0 1018.8 61
17 15.07 С 5 н/о н/о +16.6 +11.9 74 +16 +16 1021.4 1018.3 34
18 15.07 С 3
{9}
н/о н/о +16.1 +12.4 79 +16 +16 1021.4 1018.2 +19.4 22
19 15.07 н/о н/о +16.2 +11.2 72 1021.2 1018.1 12
20 15.07 СВ 3 н/о н/о +15.6 +11.9 79 +15 +15 1021.7 1018.5 3
21 15.07 С 3 н/о н/о +15.4 +11.2 76 +15 +15 1021.8 1018.6
22 15.07 С 3 н/о н/о +15.3 +10.4 73 +15 +15 1021.8 1018.6
23 15.07 н/о н/о +15.2 +10.7 74 1021.6 1018.5
00 16.07 С 1 н/о н/о +15.0 +10.9 76 +16 +16 1021.3 1018.1 106
01 16.07 С 2 н/о н/о +14.9 +10.7 76 +15 +15 1021.2 1018.0
02 16.07 СВ 1 н/о н/о +14.1 +10.3 78 +14 +14 1020.8 1017.6
03 16.07 СЗ 1 н/о н/о +12.7 +11.0 89 +13 +13 1020.5 1017.3
04 16.07 З 1 н/о н/о +12.7 +11.5 92 +13 +13 1020.9 1017.7
05 16.07 штиль 0 н/о н/о +13.6 +11.8 89 +13 +13 1021.0 1017.8 2
06 16.07 СЗ 2
{3}
н/о н/о +14.3 +11.6 84 +14 +14 1020.9 1017.7 +12.3 12
07 16.07 СЗ 1 н/о н/о +15.3 +11.4 78 +16 +16 1020.9 1017.7 25
08 16.07 В 1 н/о н/о +16.0 +10.5 70 +17 +17 1021.1 1018.0 50
09 16.07 СЗ 1 н/о н/о +16.8 +10.7 67 +18 +18 1020.8 1017.6 61
10 16.07 СЗ 2 н/о н/о +17.1 +11.3 69 +17 +17 1020.5 1017.4 61
11 16.07 СЗ 2 н/о н/о +18.4 +11.2 63 +19 +19 1020.4 1017.3 117
12 16.07 СЗ 2 н/о н/о +19.5 +11.5 60 +21 +21 комфорт 1020.1 1017.0 137
13 16.07 СЗ 2 н/о н/о +20.7 +11.4 55 +23 +23 комфорт 1019.5 1016.4 184
14 16.07 С 2 н/о н/о +20.6 +11.3 55 +23 +23 комфорт 1019.3 1016.2 204
15 16.07 С 2 н/о н/о +21.5 +10.9 51 +23 +23 комфорт 1018.9 1015.8 193
16 16.07 СЗ 3 н/о н/о +22.5 +10.8 48 +25 +25 комфорт 1018.4 1015.3 167
17 16.07 СЗ 3 н/о н/о +21.9 +11.0 50 +24 +24 комфорт 1018.2 1015.1 127
18 16.07 СЗ 3
{7}
н/о н/о +21.4 +10.6 50 +23 +23 комфорт 1018.2 1015.1 +22.5 83
19 16.07 С 2 н/о н/о +20.4 +10.8 54 +23 +23 комфорт 1018.0 1014.9 39
20 16.07 С 2 н/о н/о +17.7 +11.2 66 +18 +18 1018.2 1015.1 9
21 16.07 С 1 н/о н/о +12.9 +10.0 83 +13 +13 1018.2 1015.0
22 16.07 СВ 1 н/о н/о +11.0 +9.5 90 +11 +11 1018.2 1015.0
23 16.07 СВ 1 н/о н/о +10.4 +9.7 95 +10 +10 1018.4 1015.2
00 17.07 С 1 н/о н/о +9.5 +9.0 97 +9 +9 1018.4 1015.2 147
01 17.07 штиль 0 н/о н/о +8.8 +8.7 99 +8 +8 1018.2 1015.0
02 17.07 штиль 0 н/о н/о +7.8 +7.6 99 +7 +7 1017.6 1014.4
03 17.07 штиль 0 н/о н/о +7.5 +7.5 100 +6 +6 1017.5 1014.3
04 17.07 штиль 0 н/о н/о +7.2 +7.2 100 +6 +6 1017.4 1014.1
05 17.07 штиль 0 н/о н/о +8.8 +8.7 99 +8 +8 1017.0 1013.8 5
06 17.07 штиль 0
{1}
н/о н/о +13.4 +12.8 96 +13 +13 1017.0 1013.8 +7.1 31
07 17.07 ЮВ 1 н/о н/о +16.4 +14.0 86 +17 +17 1017.0 1013.9 73
08 17.07 В 1 н/о н/о +18.8 +11.8 64 +21 +21 комфорт 1016.9 1013.8 118
09 17.07 В 2 н/о н/о +20.5 +11.3 56 +23 +23 комфорт 1016.8 1013.7 155
10 17.07 В 2 н/о н/о +21.5 +11.0 51 +23 +23 комфорт 1016.4 1013.3 185
11 17.07 В 2 н/о н/о +22.8 +11.4 49 +25 +25 комфорт 1016.1 1013.1 203
12 17.07 СВ 2 н/о н/о +23.6 +11.4 46 +25 +25 комфорт 1015.6 1012.6 215
13 17.07 СВ 2 н/о н/о +24.7 +10.8 42 +26 +26 жарко 1015.0 1012.0 222
14 17.07 ЮЗ 2 н/о н/о +25.6 +10.6 39 +27 +27 жарко 1014.7 1011.6 212
15 17.07 С 2 н/о н/о +25.0 +10.5 40 +26 +26 жарко 1014.2 1011.1 146
16 17.07 ЮВ 1
{3}
н/о н/о +25.4 +9.7 37 +26 +26 жарко 1013.5 1010.4 107
17 17.07 Ю 2
{5}
н/о н/о +25.2 +9.0 36 +26 +26 жарко 1013.2 1010.2 77
18 17.07 ЮВ 2
{5}
н/о н/о +24.6 +10.3 40 +26 +26 жарко 1012.7 1009.7 +25.6 43
19 17.07 ЮВ 2
{3}
н/о н/о +23.7 +11.1 45 +25 +25 комфорт 1012.6 1009.6 19
20 17.07 ЮВ 1
{3}
н/о н/о +22.4 +11.7 51 +25 +25 комфорт 1012.5 1009.5 5
21 17.07 З 3 н/о н/о +20.3 +13.5 65 +23 +23 комфорт 1012.9 1009.8
22 17.07 З 3 н/о н/о +18.5 +13.9 75 +19 +19 1012.8 1009.7
23 17.07 З 2
{4}
н/о н/о +17.2 +12.6 74 +18 +18 1012.7 1009.6
00 18.07 З 1 н/о н/о +16.0 +12.9 82 +17 +17 1012.8 1009.7 182
01 18.07 Ю 1 н/о н/о +16.1 +13.0 82 +17 +17 1012.6 1009.5
02 18.07 ЮЗ 2 н/о н/о +15.5 +12.3 81 +15 +15 1012.4 1009.2
03 18.07 ЮЗ 2 н/о н/о +15.0 +12.6 86 +15 +15 1012.1 1009.0
04 18.07 ЮЗ 2
{3}
н/о н/о +14.8 +13.3 91 +14 +14 1012.2 1009.1
05 18.07 ЮЗ 3 н/о н/о +15.0 +13.6 91 +14 +14 1011.9 1008.8 4
06 18.07 ЮЗ 3
{4}
н/о н/о +15.2 +13.9 92 +14 +14 1011.9 1008.8 +14.7 17
07 18.07 ЮЗ 4 н/о н/о +17.4 +14.8 85 +17 +17 1011.9 1008.8 67
08 18.07 ЮЗ 3 н/о н/о +19.4 +15.1 76 +21 +21 комфорт 1011.8 1008.7 87
09 18.07 З 5 н/о н/о +19.9 +14.8 72 +22 +22 комфорт 1012.2 1009.1 101
10 18.07 ЮЗ 4 н/о н/о +20.6 +14.5 68 +23 +23 комфорт 1011.9 1008.9 96
11 18.07 ЮЗ 5
{8}
н/о н/о +21.3 +13.0 59 +24 +24 комфорт 1012.0 1008.9
12 18.07 ЮЗ 5 н/о н/о +21.8 +13.8 60 +25 +25 комфорт 1011.9 1008.9 103
13 18.07 ЮЗ 5 н/о н/о +22.0 +13.7 59 +25 +25 комфорт 1011.9 1008.9 88
14 18.07 ЮЗ 5 н/о н/о +19.9 +15.9 78 +22 +22 комфорт 1012.3 1009.2 46
15 18.07 ЮЗ 5 н/о н/о +19.5 +16.6 83 +21 +21 комфорт 1012.4 1009.4 56
16 18.07 ЮЗ 5 н/о н/о +20.5 +15.5 73 +23 +23 комфорт 1012.3 1009.2 75
17 18.07 З 5 н/о н/о +20.7 +14.7 68 +23 +23 комфорт 1012.3 1009.2 56
18 18.07 ЮЗ 3
{10}
н/о н/о +19.9 +14.8 72 +22 +22 комфорт 1012.5 1009.4 +22.3 30
19 18.07 ЮЗ 3 н/о н/о +19.9 +14.2 70 +22 +22 комфорт 1012.6 1009.5 18
20 18.07 ЮЗ 3 н/о н/о +19.1 +14.3 74 +21 +21 комфорт 1012.8 1009.7 3
21 18.07 ЮЗ 2 н/о н/о +17.9 +14.5 80 +18 +18 1013.0 1009.9
22 18.07 ЮЗ 3 н/о н/о +17.4 +14.1 81 +17 +17 1013.1 1010.0
23 18.07 ЮЗ 3 н/о н/о +16.7 +13.3 80 +16 +16 1013.5 1010.4
00 19.07 ЮЗ 3 н/о н/о +15.8 +13.2 85 +15 +15 1013.7 1010.6 100
01 19.07 ЮЗ 2 н/о н/о +14.9 +13.2 90 +15 +15 1013.7 1010.6
02 19.07 ЮЗ 2 н/о н/о +14.5 +13.3 93 +14 +14 1013.6 1010.5
03 19.07 ЮЗ 2 н/о н/о +14.0 +13.3 96 +13 +13 1013.5 1010.3
04 19.07 ЮЗ 3 н/о н/о +14.6 +13.7 94 +14 +14 1013.6 1010.4
05 19.07 ЮЗ 2 н/о н/о +14.7 +13.9 95 +14 +14 1013.7 1010.6 6
06 19.07 ЮЗ 1
{5}
н/о н/о +16.0 +14.6 91 +17 +17 1014.2 1011.0 +14.0 31
07 19.07 ЮЗ 3 н/о н/о +17.9 +14.4 80 +18 +18 1014.6 1011.5 65
08 19.07 З 3 н/о н/о +19.9 +14.1 69 +22 +22 комфорт 1015.0 1011.9 108
09 19.07 ЮЗ 4 н/о н/о +21.2 +13.5 61 +24 +24 комфорт 1014.8 1011.8 160
10 19.07 ЮЗ 4 н/о н/о +21.1 +12.4 58 +23 +23 комфорт 1014.6 1011.5 97
11 19.07 ЮЗ 4 н/о н/о +22.0 +12.3 54 +24 +24 комфорт 1014.3 1011.2 121
12 19.07 ЮЗ 4 н/о н/о +22.8 +12.6 53 +26 +26 жарко 1014.4 1011.4 153
13 19.07 ЮЗ 5 н/о н/о +23.5 +12.2 49 +25 +25 комфорт 1014.1 1011.1 154
14 19.07 ЮЗ 4 н/о н/о +23.8 +12.0 48 +26 +26 жарко 1013.9 1010.8 178
15 19.07 ЮЗ 4 н/о н/о +24.9 +12.2 45 +27 +27 жарко 1013.7 1010.6 152
16 19.07 ЮЗ 4 н/о н/о +24.5 +11.8 45 +26 +26 жарко 1013.2 1010.2 103
17 19.07 З 3 н/о н/о +24.4 +12.4 47 +26 +26 жарко 1012.9 1009.8 71
18 19.07 З 2
{9}
н/о н/о +23.9 +12.3 48 +26 +26 жарко 1012.6 1009.6 +24.9 29
19 19.07 З 1 н/о н/о +23.2 +13.8 55 +27 +27 душно 1012.4 1009.4 13
20 19.07 СЗ 3 н/о н/о +22.0 +13.7 59 +25 +25 комфорт 1012.6 1009.5 4
21 19.07 СВ 2 н/о н/о +20.8 +15.2 70 +24 +24 комфорт 1012.7 1009.6
22 19.07 В 1 н/о н/о +20.0 +15.7 76 +24 +24 комфорт 1012.2 1009.1
23 19.07 В 1 н/о н/о +19.1 +15.8 81 +22 +22 комфорт 1011.4 1008.4
00 20.07 В 1 н/о н/о +17.7 +15.2 85 +19 +19 1010.5 1007.4 145
01 20.07 ЮВ 1 н/о н/о +16.2 +14.8 91 +17 +17 1010.4 1007.3
02 20.07 ЮВ 2 н/о н/о +17.1 +15.4 90 +17 +17 1009.9 1006.8
03 20.07 Ю 2 н/о н/о +18.4 +15.0 81 +19 +19 1009.2 1006.1
05 20.07 З 6 н/о н/о +19.2 +14.8 76 +20 +20 1010.3 1007.2
06 20.07 СЗ 1
{9}
н/о н/о +18.3 +16.7 90 +20 +20 1009.9 1006.8 +16.1 2
07 20.07 В 2 н/о н/о +17.9 +17.1 95 +18 +18 1009.1 1006.0 12
08 20.07 ЮВ 2 н/о н/о +18.5 +17.6 94 +20 +20 1009.2 1006.1 16
09 20.07 Ю 2 н/о н/о +20.9 +17.5 81 +25 +25 комфорт 1009.8 1006.8 87
10 20.07 ЮЗ 3 н/о н/о +23.1 +17.6 71 +28 +28 душно 1009.7 1006.7 172
11 20.07 ЮЗ 4 н/о н/о +24.0 +17.5 67 +28 +28 душно 1009.7 1006.7 146
12 20.07 З 6
{9}
н/о н/о +24.6 +18.2 68 +29 +29 душно 1009.9 1006.8 167
13 20.07 З 6 н/о н/о +25.4 +17.3 61 +29 +29 душно 1010.0 1007.0 198
14 20.07 З 7 н/о н/о +25.4 +16.6 58 +29 +29 душно 1010.4 1007.4 204
15 20.07 З 7 н/о н/о +24.8 +16.2 59 +28 +28 жарко 1011.2 1008.2 173
17 20.07 ЮЗ 6 н/о н/о +22.3 +14.5 61 +26 +26 жарко 1012.5 1009.5 109
18 20.07 З 6
{14}
н/о н/о +21.8 +14.3 62 +25 +25 комфорт 1012.8 1009.7 +25.5 76
19 20.07 З 6 н/о н/о +20.6 +13.9 65 +23 +23 комфорт 1013.8 1010.7 39
20 20.07 З 5 н/о н/о +19.2 +13.6 70 +20 +20 1014.5 1011.4 9
21 20.07 ЮЗ 4 н/о н/о +17.9 +13.7 76 +18 +18 1014.9 1011.8
22 20.07 ЮЗ 4 н/о н/о +16.8 +14.1 84 +16 +16 1015.5 1012.4
23 20.07 ЮЗ 3 н/о н/о +16.0 +14.1 88 +16 +16 1016.2 1013.1
00 21.07 ЮЗ 2 н/о н/о +15.3 +14.1 93 +15 +15 1016.7 1013.6 155
01 21.07 ЮЗ 2 н/о н/о +14.5 +13.8 96 +14 +14 1017.1 1014.0
02 21.07 ЮЗ 2 н/о н/о +14.4 +14.0 97 +14 +14 1017.3 1014.2
03 21.07 ЮЗ 2 н/о н/о +14.4 +14.2 99 +14 +14 1017.8 1014.6
05 21.07 ЮЗ 2 н/о н/о +14.9 +14.7 99 +15 +15 1019.1 1015.9 3
06 21.07 ЮЗ 2
{3}
н/о н/о +16.0 +15.5 97 +16 +16 1019.9 1016.8 +14.2 22
07 21.07 З 4 н/о н/о +17.8 +15.2 85 +18 +18 1020.8 1017.6 61
08 21.07 З 4 н/о н/о +19.2 +15.1 77 +21 +21 комфорт 1021.2 1018.1 112
09 21.07 З 3 н/о н/о +19.6 +14.8 74 +22 +22 комфорт 1021.8 1018.7 114
10 21.07 З 3 н/о н/о +21.0 +14.8 68 +25 +25 комфорт 1021.9 1018.8 154
11 21.07 З 3 н/о н/о +22.1 +13.6 59 +25 +25 комфорт 1022.3 1019.2 183
12 21.07 ЮЗ 3 н/о н/о +23.3 +12.7 51 +26 +26 жарко 1022.4 1019.3 169

 

Местоположение метеостанции Бейтем (Бельгия): широта 50.90 долгота 3.12 высота над уровнем моря 22 м.

В архиве по умолчанию представлена погода в Бейтеме за последнюю неделю. Архивные данные за месяц целиком и за предыдущие месяцы, начиная с января 2011 года, Вы можете получить, выбрав интересующий диапазон дат из раскрывающегося списка и нажав кнопку "Ввод!".


*Определитесь, кто Вы:
робот инопланетянин человек

Внимание! Время в таблицах - всемирное. Для получения местного времени необходимо прибавить поправку, которая равна 1 ч.

Смотрите также архив погоды в соседних городах и на ближайших метеорологических станциях:

Погода в Лилле (Франция) (37 км)
Погода в Остенде (Бельгия) (38 км)
Погода в Коксейде (Бельгия) (39 км)
Погода в Семмерзэйке (Бельгия) (39 км)
Погода в Зебрюгге (Бельгия) (48 км)
Погода в Мелле (Бельгия) (50 км)
Погода в Цадзанде (Нидерланды) (56 км)
Погода в Дюнкерке (Франция) (58 км)
Погода в Генте (Бельгия) (58 км)
Погода в Шьевре (Бельгия) (62 км)

Пояснения к столбцам:

Ветер - указаны скорость ветра в м/с - средняя за 10 мин, порывы в срок и между сроками (в фигурных скобках) и направление, откуда дует ветер: С - северный, СВ - северо-восточный, В - восточный, ЮВ - юго-восточный, Ю - южный, ЮЗ - юго-западный, З - западный, СЗ - северо-западный.
Видимость - горизонтальная дальность видимости в метрах или километрах. При видимости от 1 до 10 км при отсутствии осадков обычно наблюдается дымка, при ухудшении видимости до 1 км и менее - туман. В сухую погоду видимость может ухудшаться дымом, пылью или мглою.
Явления - указаны атмосферные явления, наблюдавшиеся в срок или в последний час перед сроком; фигурными скобками обозначены явления, наблюдавшиеся между сроками (за 1-3 часа до срока); квадратными скобками обозначены град или гололедные отложения с указанием их диаметра в мм.
Облачность - указаны через наклонную черту общая и нижняя облачность в баллах и высота нижней границы облаков в метрах; квадратными скобками обозначены формы облаков: Ci - перистые, Cs - перисто-слоистые, Cc - перисто-кучевые, Ac - высококучевые, As - высокослоистые, Sc - слоисто-кучевые, Ns - слоисто-дождевые, Cu - кучевые, Cb - кучево-дождевые. Подробнее классификацию облаков см. в Атласе облаков (PDF).
T - Температура воздуха - температура, измеренная на высоте 2 м над землей.
Td - Температура точки росы - температура, при понижении до которой содержащийся в воздухе водяной пар достигнет насыщения.
f - Относительная влажность воздуха - влажноcть воздуха, измеренная на высоте 2 м над землей.
Te - Эффективная температура - температура, которую ощущает одетый по сезону человек в тени. Характеристика душности погоды. При расчете учитывается влияние влажности воздуха и скорости ветра на теплоощущения человека.
Tes - Эффективная температура на солнце - температура, которую ощущает человек, с поправкой на солнечный нагрев. Характеристика знойности погоды. Зависит от высоты солнца над горизонтом, облачности и скорости ветра. Ночью, в пасмурную погоду, а также при ветре 12 м/с и более поправка равна нулю.
P - Атмосферное давление - приведенное к уровню моря атмосферное давление.
Po - Атмосферное давление - измеренное на уровне метеостанции атмосферное давление.
Tmin - Минимальная температура - минимум температуры воздуха на высоте 2 м над землей.
Tmax - Максимальная температура - максимум температуры воздуха на высоте 2 м над землей.
R - Количество осадков - Количество выпавших осадков за период времени, мм. При наведении курсора мыши на число - период времени, за который выпало указанное количество осадков.
R24 - Количество осадков - Количество выпавших осадков за 24 часа, мм.
S - Снежный покров - Высота снежного покрова, см. При наведении курсора мыши на число - состояние снежного покрова и степень покрытия местности в баллах.